Location: Carri�res
(48.9069°N, 2.1792°E)
Time: 13:48:51
(UTC+00:00)

Cosmos 1455 - Pass Details

Date: 17 January 2021
Orbit: 499 x 520 km, 82.5° (Epoch: 25 February)

Event Time Altitude Azimuth Distance (km) Brightness Sun altitude
Rises 18:09:47 0° 357° (N) 2,623 5.7 -16.7°
Reaches altitude 10° 18:12:04 10° 7° (N) 1,736 4.7 -17.1°
Enters shadow 18:13:02 16° 16° (NNE) 1,388 4.1 -17.2°
